TimeCST,TemperatureF,Dew PointF,Humidity,Sea Level PressureIn,VisibilityMPH,Wind Direction,Wind SpeedMPH,Gust SpeedMPH,PrecipitationIn,Events,Conditions,WindDirDegrees,DateUTC
12:00 AM,68,64,83,29.82,12,East,5.8,,,,Mostly Cloudy,80,2013-06-19 06:00:00
12:00 AM,68.0,64.4,88,29.95,-9999.0,East,5.8,-,N/A,,Clear,80,2013-06-19 06:00:00
1:00 AM,69.8,62.6,78,29.92,-9999.0,East,9.2,-,N/A,,Clear,100,2013-06-19 07:00:00
2:00 AM,71.6,62.6,73,29.87,-9999.0,East,11.5,-,N/A,,Clear,100,2013-06-19 08:00:00
3:00 AM,70,62,69,29.74,12,SE,4.6,,,,Partly Cloudy,140,2013-06-19 09:00:00
3:00 AM,69.8,62.6,78,29.89,-9999.0,SE,4.6,-,N/A,,Clear,140,2013-06-19 09:00:00
4:00 AM,66.2,62.6,88,29.90,-9999.0,NW,3.5,-,N/A,,Clear,310,2013-06-19 10:00:00
5:00 AM,66.2,62.6,88,29.93,6.2,NW,3.5,-,N/A,,Mostly Cloudy,320,2013-06-19 11:00:00
6:00 AM,67,63,83,29.82,12,ENE,3.5,,,,Overcast,70,2013-06-19 12:00:00
6:00 AM,68.0,62.6,83,29.96,6.2,ENE,3.5,-,N/A,,Mostly Cloudy,70,2013-06-19 12:00:00
7:00 AM,71.6,64.4,78,29.96,6.2,ESE,2.3,-,N/A,,Mostly Cloudy,110,2013-06-19 13:00:00
8:00 AM,77.0,64.4,65,29.96,6.2,North,3.5,-,N/A,,Mostly Cloudy,10,2013-06-19 14:00:00
9:00 AM,76,61,51,29.83,12,East,13.8,,,,Scattered Clouds,100,2013-06-19 15:00:00
9:00 AM,78.8,66.2,65,29.97,6.2,WSW,5.8,-,N/A,,Scattered Clouds,250,2013-06-19 15:00:00
10:00 AM,78.8,68.0,69,29.97,6.2,WSW,6.9,-,N/A,,Scattered Clouds,240,2013-06-19 16:00:00
11:00 AM,78.8,66.2,65,29.96,6.2,West,9.2,-,N/A,,Scattered Clouds,260,2013-06-19 17:00:00
12:00 PM,80,68,58,29.79,12,WSW,9.2,,,,Partly Cloudy,250,2013-06-19 18:00:00
12:00 PM,80.6,68.0,65,29.95,6.2,WSW,9.2,-,N/A,,Scattered Clouds,250,2013-06-19 18:00:00
12:44 PM,73.4,69.8,88,29.94,-9999.0,West,11.5,-,N/A,Rain,Rain,260,2013-06-19 18:44:00
1:00 PM,73.4,69.8,88,29.94,6.2,WSW,11.5,-,N/A,,Mostly Cloudy,250,2013-06-19 19:00:00
2:00 PM,73.4,69.8,88,29.93,-9999.0,West,6.9,-,N/A,Rain,Light Rain,270,2013-06-19 20:00:00
2:20 PM,71.6,69.8,94,29.93,4.3,WSW,4.6,-,N/A,Rain-Thunderstorm,Light Thunderstorms and Rain,240,2013-06-19 20:20:00
2:38 PM,-9999,-9999,N/A,29.93,1.2,SE,3.5,-,N/A,Rain-Thunderstorm,Heavy Thunderstorms and Rain,140,2013-06-19 20:38:00
3:00 PM,68,67,95,29.77,2,WNW,8.1,,,Rain-Thunderstorm,Thunderstorms and Rain,290,2013-06-19 21:00:00
3:00 PM,68.0,66.2,94,29.91,2.5,WNW,8.1,-,N/A,Rain-Thunderstorm,Light Thunderstorms and Rain,290,2013-06-19 21:00:00
3:20 PM,69.8,66.2,88,29.91,4.3,South,4.6,-,N/A,Fog-Thunderstorm,Patches of Fog,180,2013-06-19 21:20:00
4:00 PM,68.0,66.2,94,29.91,5.0,WNW,4.6,-,N/A,Fog,Fog,290,2013-06-19 22:00:00
5:00 PM,68.0,66.2,94,29.95,6.2,NNW,2.3,-,N/A,Fog,Mostly Cloudy,330,2013-06-19 23:00:00
6:00 PM,69,66,89,29.79,9,ENE,3.5,,,,Partly Cloudy,70,2013-06-20 00:00:00
6:00 PM,68.0,66.2,94,29.92,6.2,ENE,3.5,-,N/A,,Mostly Cloudy,70,2013-06-20 00:00:00
7:00 PM,68.0,66.2,94,29.93,-9999.0,East,3.5,-,N/A,,Clear,80,2013-06-20 01:00:00
8:00 PM,68.0,66.2,94,29.95,-9999.0,North,3.5,-,N/A,,Clear,10,2013-06-20 02:00:00
9:00 PM,67,66,95,29.83,12,West,3.5,,,,Scattered Clouds,260,2013-06-20 03:00:00
9:00 PM,68.0,66.2,94,29.98,6.2,West,3.5,-,N/A,,Scattered Clouds,260,2013-06-20 03:00:00
10:00 PM,66.2,66.2,100,30.00,6.2,Calm,Calm,-,N/A,,Scattered Clouds,0,2013-06-20 04:00:00
11:00 PM,66.2,64.4,94,29.99,6.2,NNE,3.5,-,N/A,,Scattered Clouds,20,2013-06-20 05:00:00